Theta_e
338 337 337 336 333 331 330 329 328 323 321 318 317 315 314 312 310 310 308 306 305 304
338 337 336 335 335 333 330 327 322 319 319 318 316 315 313 310 308 306 305 303 303 302
336 334 334 336 333 331 326 322 318 318 317 316 314 313 311 309 308 306 304 301 300 300
335 335 334 332 329 326 322 319 318 317 316 314 312 311 309 308 306 303 301 300 300 299
335 334 331 328 323 322 318 318 317 316 314 313 312 311 310 307 304 301 299 299 299 299
334 328 323 321 320 319 317 316 316 315 313 312 311 310 308 305 302 300 299 299 299 299
325 322 320 319 318 317 316 314 313 312 311 310 309 308 306 304 302 301 300 299 299 300
321 319 317 314 313 313 311 310 309 308 308 308 306 304 302 299 297 297 297 297 297 298
316 315 312 310 309 308 306 306 306 305 305 305 302 300 300 297 295 295 294 294 294 296
311 308 307 306 305 305 303 303 303 303 305 301 299 297 297 297 294 294 293 293 293 294
306 303 302 301 301 299 300 300 300 301 300 297 297 296 295 295 294 294 294 294 293 292
303 302 302 299 299 296 296 296 295 297 295 295 296 295 294 294 293 292 292 292 294 293
304 302 298 297 294 295 295 293 294 293 294 296 294 294 293 293 292 290 290 290 290 291
301 297 296 294 294 293 292 291 291 290 291 293 294 293 293 292 290 289 288 287 288 289
Wind_Speed
14 10 12 14 13 11 10 7 8 12 7 6 7 7 6 9 8 8 6 8 6 4
14 15 12 12 11 10 13 12 12 11 7 7 9 8 10 9 9 7 5 6 5 4
15 12 12 10 12 12 13 15 13 12 11 11 9 9 12 9 7 8 4 4 6 5
14 12 14 12 12 13 14 15 14 10 11 11 11 11 10 9 8 8 6 6 6 7
15 14 14 14 12 15 14 12 12 12 11 12 12 10 9 9 7 8 8 7 8 7
17 15 14 16 15 15 17 14 12 12 12 12 10 10 8 9 8 9 8 8 6 7
17 18 17 16 16 15 16 15 13 11 13 11 11 10 10 9 9 7 7 5 7 8
18 19 19 18 17 16 16 12 12 14 12 11 10 7 9 9 7 7 7 7 8 8
20 19 19 18 17 17 16 13 13 13 12 11 7 15 15 11 8 9 8 8 8 8
20 20 19 18 16 15 10 13 14 13 13 11 9 16 15 14 8 9 8 8 7 8
22 22 20 20 17 14 11 12 11 12 11 12 9 13 14 15 10 9 8 7 8 9
24 24 21 20 17 14 13 13 11 10 10 12 8 12 14 13 8 7 7 7 10 11
23 22 20 17 19 13 14 13 10 10 9 11 9 14 14 10 5 6 5 8 9 14
18 21 22 19 13 14 14 14 11 10 8 10 11 12 15 9 6 6 6 7 6 6
Wind_Direction
158 153 152 150 144 138 129 104 116 91 119 115 116 110 113 86 75 77 73 71 63 66
152 158 164 154 148 132 132 130 117 116 130 123 111 130 100 90 83 78 69 68 63 61
156 144 145 140 126 133 125 119 122 132 137 129 121 110 94 93 88 85 59 61 56 45
154 148 137 136 135 129 122 130 125 129 128 121 115 95 97 93 93 86 67 51 49 48
147 148 136 134 128 126 120 115 124 128 117 112 104 103 104 100 92 81 64 50 44 34
147 132 128 126 130 126 118 115 115 112 109 100 101 98 99 96 87 76 66 52 42 27
133 129 127 126 120 117 114 115 110 110 98 103 98 102 98 95 78 69 61 46 38 25
126 125 120 115 114 110 103 105 114 103 96 92 91 99 102 86 83 70 57 38 28 19
122 119 115 112 114 109 111 107 106 96 101 92 99 100 91 89 79 66 54 39 24 20
118 112 109 107 102 99 116 119 105 103 100 100 95 87 89 84 76 70 53 42 26 29
116 108 104 102 101 97 91 90 88 86 95 93 84 92 95 87 77 71 56 43 38 34
117 114 116 115 113 94 97 85 80 96 104 99 96 91 84 83 74 65 52 39 32 34
119 119 113 110 101 105 98 85 93 91 83 98 86 77 75 77 91 71 44 37 26 19
107 110 108 102 99 101 97 100 95 89 76 77 77 72 72 71 75 64 52 36 15 12